South St. Paul, MN

10:13 PM CDT on May 25, 2017 (GMT -0500)
South Saint Paul Municipal-Fleming

Weather History for KSGS - May, 2013

Change the Weather History Date:

Saturday, May 4, 2013

  Actual Average (KSTP) Record (KSTP)
Temperature  
Mean Temperature 44 °F -  
Max Temperature 54 °F 65 °F 91 °F (2000)
Min Temperature 35 °F 43 °F 30 °F (2005)
Degree Days  
Heating Degree Days 20    
Moisture  
Dew Point 38 °F    
Average Humidity 82    
Maximum Humidity 97    
Minimum Humidity 64    
Precipitation  
Precipitation 0.09 in - - ()
Sea Level Pressure  
Sea Level Pressure 30.13 in    
Wind  
Wind Speed 8 mph (North)    
Max Wind Speed 13 mph    
Max Gust Speed 16 mph    
Visibility 10 miles    
Events Rain    
Averages and records for this station are not official NWS values.
T = Trace of Precipitation, MM = Missing Value Source: NWS Daily Summary

Daily Weather History Graph

Daily Weather History Graph

Search for Another Location

Airport or City:

Trip Planner

Search our weather history database for the weather conditions in past years. The results will help you decide how hot, cold, wet, or windy it might be!

Date:

Astronomy

May. 04, 2013 Rise Set
Actual Time 5:57 AM CDT 8:21 PM CDT
Civil Twilight 5:24 AM CDT 8:54 PM CDT
Nautical Twilight 4:43 AM CDT 9:35 PM CDT
Astronomical Twilight 3:57 AM CDT 10:21 PM CDT
Moon 3:09 AM CDT (5/4) 3:07 PM CDT (5/4)
Length of Visible Light 15h 29m
Length of Day
14h 24m
Waning Crescent, 27% of the Moon is Illuminated
May 4
Waning Crescent
May 9
New
May 17
First Quarter
May 24
Full
May 31
Last Quarter

Hourly Weather History & Observations

Time (CDT) Temp. Windchill Dew Point Humidity Pressure Visibility Wind Dir Wind Speed Gust Speed Precip Events Conditions
12:14 AM 36.3 °F 30.1 °F 32.2 °F 85% 30.15 in 10.0 mi NNE 8.1 mph - N/A   Overcast
12:34 AM 36.5 °F 30.3 °F 32.4 °F 85% 30.15 in 10.0 mi North 8.1 mph - N/A   Overcast
12:54 AM 36.3 °F 30.1 °F 32.4 °F 86% 30.14 in 10.0 mi North 8.1 mph - N/A   Overcast
1:14 AM 36.1 °F 29.3 °F 32.5 °F 87% 30.13 in 10.0 mi North 9.2 mph - N/A   Light Drizzle
1:34 AM 36.1 °F 28.7 °F 32.9 °F 88% 30.13 in 10.0 mi North 10.4 mph - N/A   Overcast
1:54 AM 36.1 °F 29.3 °F 32.9 °F 88% 30.12 in 10.0 mi North 9.2 mph - N/A   Overcast
2:14 AM 36.1 °F 29.3 °F 33.1 °F 89% 30.12 in 10.0 mi NNE 9.2 mph - N/A   Overcast
2:34 AM 36.1 °F 29.3 °F 33.3 °F 89% 30.12 in 7.0 mi NNE 9.2 mph - N/A   Overcast
2:54 AM 36.1 °F 28.7 °F 33.3 °F 89% 30.12 in 10.0 mi NNE 10.4 mph - N/A   Overcast
3:14 AM 36.1 °F 28.2 °F 33.3 °F 89% 30.13 in 10.0 mi NNE 11.5 mph - N/A   Overcast
3:34 AM 36.1 °F 28.2 °F 33.3 °F 89% 30.11 in 10.0 mi North 11.5 mph - N/A   Overcast
3:54 AM 36.1 °F 29.9 °F 33.8 °F 91% 30.12 in 2.5 mi North 8.1 mph - 0.02 in Rain Light Rain
4:14 AM 35.8 °F 29.4 °F 34.3 °F 94% 30.12 in 5.0 mi NNE 8.1 mph - 0.01 in Rain Rain
4:34 AM 35.8 °F 29.4 °F 34.7 °F 96% 30.12 in 5.0 mi North 8.1 mph - 0.02 in Rain Light Rain
4:54 AM 35.8 °F 28.8 °F 34.7 °F 96% 30.11 in 10.0 mi North 9.2 mph - 0.02 in   Light Drizzle
5:14 AM 35.8 °F 29.4 °F 34.7 °F 96% 30.11 in 7.0 mi NNE 8.1 mph - 0.01 in Rain Rain
5:34 AM 36.0 °F 30.3 °F 34.7 °F 95% 30.11 in 10.0 mi North 6.9 mph - 0.01 in   Overcast
5:54 AM 36.1 °F 29.9 °F 35.1 °F 96% 30.12 in 10.0 mi North 8.1 mph - 0.01 in   Overcast
6:14 AM 36.1 °F 29.3 °F 35.1 °F 96% 30.12 in 5.0 mi North 9.2 mph - 0.01 in Rain Light Rain
6:34 AM 36.3 °F 30.8 °F 35.1 °F 95% 30.11 in 7.0 mi North 6.9 mph - 0.02 in Rain Light Rain
6:54 AM 36.1 °F 29.3 °F 35.1 °F 96% 30.12 in 5.0 mi NNE 9.2 mph - 0.03 in Rain Light Rain
7:14 AM 36.1 °F 29.9 °F 35.1 °F 96% 30.12 in 10.0 mi North 8.1 mph - 0.01 in Rain Light Rain
7:34 AM 36.5 °F 31.0 °F 35.2 °F 95% 30.13 in 10.0 mi North 6.9 mph - 0.01 in Rain Light Rain
7:54 AM 36.7 °F 31.2 °F 35.6 °F 96% 30.13 in 10.0 mi NNE 6.9 mph - 0.01 in   Light Drizzle
8:14 AM 36.5 °F 31.0 °F 35.6 °F 97% 30.12 in 10.0 mi North 6.9 mph - N/A   Overcast
8:34 AM 37.4 °F 31.4 °F 36.0 °F 95% 30.12 in 10.0 mi North 8.1 mph - N/A   Overcast
8:54 AM 37.4 °F 32.1 °F 36.3 °F 96% 30.13 in 10.0 mi NNE 6.9 mph - N/A   Overcast
9:14 AM 37.8 °F 32.5 °F 36.5 °F 95% 30.13 in 10.0 mi North 6.9 mph - N/A   Overcast
9:34 AM 38.3 °F 32.5 °F 37.0 °F 95% 30.13 in 10.0 mi North 8.1 mph - N/A   Overcast
9:54 AM 39.2 °F 34.2 °F 37.9 °F 95% 30.13 in 10.0 mi NNE 6.9 mph - N/A   Overcast
10:14 AM 39.7 °F 34.9 °F 38.1 °F 94% 30.14 in 10.0 mi NNE 6.9 mph - N/A   Overcast
10:34 AM 41.0 °F 34.7 °F 38.3 °F 90% 30.13 in 10.0 mi NNE 10.4 mph - N/A   Overcast
10:54 AM 42.1 °F 36.6 °F 38.1 °F 86% 30.12 in 10.0 mi NNE 9.2 mph - N/A   Overcast
11:14 AM 42.3 °F 37.3 °F 37.9 °F 85% 30.13 in 10.0 mi NNE 8.1 mph - N/A   Overcast
11:34 AM 43.5 °F 40.1 °F 38.5 °F 82% 30.13 in 10.0 mi North 5.8 mph - N/A   Overcast
11:54 AM 43.7 °F 39.7 °F 38.5 °F 82% 30.13 in 10.0 mi North 6.9 mph - N/A   Overcast
12:14 PM 44.8 °F 42.4 °F 38.8 °F 80% 30.14 in 10.0 mi NNE 4.6 mph - N/A   Overcast
12:39 PM 45.5 °F 41.8 °F 39.0 °F 78% 30.14 in 10.0 mi NNE 6.9 mph - N/A   Overcast
12:54 PM 46.4 °F 42.9 °F 39.4 °F 77% 30.14 in 10.0 mi NNE 6.9 mph - N/A   Overcast
1:14 PM 46.6 °F - 39.4 °F 76% 30.13 in 10.0 mi North 9.2 mph - N/A   Overcast
1:34 PM 47.3 °F - 39.7 °F 75% 30.13 in 10.0 mi North 5.8 mph - N/A   Overcast
1:54 PM 48.2 °F - 40.5 °F 75% 30.14 in 10.0 mi North 5.8 mph - N/A   Overcast
2:14 PM 48.7 °F - 40.5 °F 73% 30.14 in 10.0 mi North 5.8 mph - N/A   Overcast
2:34 PM 49.5 °F - 40.8 °F 72% 30.13 in 10.0 mi North 5.8 mph - N/A   Overcast
2:54 PM 50.4 °F - 41.0 °F 70% 30.13 in 10.0 mi North 6.9 mph - N/A   Overcast
3:14 PM 51.8 °F - 41.7 °F 68% 30.13 in 10.0 mi North 6.9 mph - N/A   Overcast
3:34 PM 51.6 °F - 41.4 °F 68% 30.13 in 10.0 mi North 10.4 mph - N/A   Overcast
3:54 PM 51.8 °F - 41.4 °F 68% 30.12 in 10.0 mi North 10.4 mph - N/A   Scattered Clouds
4:14 PM 51.8 °F - 41.0 °F 67% 30.12 in 10.0 mi North 10.4 mph - N/A   Scattered Clouds
4:34 PM 52.9 °F - 41.5 °F 65% 30.12 in 10.0 mi North 9.2 mph - N/A   Scattered Clouds
4:54 PM 53.8 °F - 42.3 °F 65% 30.11 in 10.0 mi North 11.5 mph - N/A   Clear
5:14 PM 53.8 °F - 41.9 °F 64% 30.12 in 10.0 mi North 8.1 mph - N/A   Clear
5:34 PM 54.0 °F - 41.9 °F 64% 30.12 in 10.0 mi North 11.5 mph - N/A   Clear
5:54 PM 53.8 °F - 42.3 °F 65% 30.12 in 10.0 mi North 9.2 mph - N/A   Clear
6:14 PM 53.1 °F - 41.9 °F 66% 30.12 in 10.0 mi North 11.5 mph - N/A   Clear
6:34 PM 52.7 °F - 42.1 °F 67% 30.12 in 10.0 mi North 10.4 mph - N/A   Clear
6:54 PM 52.0 °F - 42.3 °F 69% 30.13 in 10.0 mi NNE 8.1 mph - N/A   Clear
7:14 PM 51.3 °F - 42.4 °F 72% 30.13 in 10.0 mi North 9.2 mph - N/A   Clear
7:34 PM 50.4 °F - 41.5 °F 72% 30.14 in 10.0 mi North 10.4 mph - N/A   Clear
7:54 PM 50.0 °F - 41.9 °F 74% 30.14 in 10.0 mi NNE 10.4 mph - N/A   Clear
8:14 PM 49.1 °F - 41.5 °F 75% 30.14 in 10.0 mi North 12.7 mph 16.1 mph N/A   Clear
8:34 PM 48.2 °F - 41.0 °F 76% 30.15 in 10.0 mi North 9.2 mph - N/A   Scattered Clouds
8:54 PM 47.7 °F - 40.8 °F 77% 30.16 in 10.0 mi North 9.2 mph - N/A   Mostly Cloudy
9:14 PM 47.5 °F - 40.5 °F 77% 30.16 in 10.0 mi NNE 8.1 mph - N/A   Overcast
9:34 PM 46.8 °F - 40.1 °F 78% 30.16 in 10.0 mi North 9.2 mph - N/A   Mostly Cloudy
9:54 PM 46.4 °F 41.5 °F 39.4 °F 77% 30.16 in 10.0 mi NNE 10.4 mph - N/A   Scattered Clouds
10:14 PM 45.9 °F 40.4 °F 39.4 °F 78% 30.16 in 10.0 mi North 11.5 mph - N/A   Scattered Clouds
10:34 PM 45.1 °F 41.4 °F 39.2 °F 80% 30.17 in 10.0 mi North 6.9 mph - N/A   Mostly Cloudy
10:54 PM 44.6 °F 41.4 °F 38.8 °F 80% 30.16 in 10.0 mi North 5.8 mph - N/A   Overcast
11:14 PM 44.1 °F 39.5 °F 38.5 °F 81% 30.17 in 10.0 mi North 8.1 mph - N/A   Overcast
11:34 PM 43.9 °F 39.9 °F 38.3 °F 81% 30.17 in 10.0 mi North 6.9 mph - N/A   Overcast
11:54 PM 43.7 °F 40.3 °F 38.1 °F 81% 30.17 in 10.0 mi North 5.8 mph - N/A   Overcast